Location: St. Louis
(38.6270°N, 90.1994°W)
Time: 04:29:34
(UTC-05:00)

RS-15 - Pass Details

Date: 03 February 2022
Orbit: 1881 x 2163 km, 64.8° (Epoch: 20 May)

Event Time Altitude Azimuth Distance (km) Brightness Sun altitude
Rises 18:16:23 0° 248° (WSW) 5,433 12.4 -10.4°
Reaches altitude 10° 18:20:07 10° 257° (WSW) 4,474 11.5 -11.1°
Maximum altitude 18:30:37 37° 321° (NW) 2,953 9.2 -13.1°
Drops below altitude 10° 18:41:38 10° 26° (NNE) 4,665 9.7 -15.3°
Sets 18:45:41 0° 35° (NE) 5,687 10.1 -16.0°
